Terminal Aerodrome Forecast
Issued by NWS Shreveport, LA

Home | Current Version | Previous Version | Text Only | Print | Product List | Glossary On
Versions: 1 2 3 4 5 6 7 8 9 10 11 12 13 14 15 16 17 18 19
017
FTUS44 KSHV 060544
TAFLFK
TAF
KLFK 060544Z 0606/0706 24007KT 3SM BR OVC005
      TEMPO 0608/0612 1SM BR OVC003
     FM061500 VRB04KT 4SM BR BKN009
     FM061800 01004KT P6SM BKN012=

USA.gov is the U.S. government's official web portal to all federal, state and local government web resources and services.